Home > Weather > Pasadena > Past weeks

Flag for U.S.A. Weather for the Past 2 Weeks in Pasadena, Texas, U.S.A.

Now
52 °F

Mostly cloudy.


Feels Like: 52 °F
Forecast: 45 / 59 °F
Wind: No wind

Location: Houston / Ellington

Current Time: Feb 6, 2016 at 1:57:28 AM

Latest Report: Feb 6, 2016 at 12:50 AM


Visibility: 10 mi

Pressure: 30.36 "Hg

Humidity: 67%

Dew point: 41 °F

Location of PasadenaLocation

Historic Weather in Pasadena — Graph

°F

Pasadena Temperature Yesterday

Maximum temperature yesterday: 57 °F (at 11:50 AM)
Minimum temperature yesterday: 41 °F (at 4:50 AM)
Average temperature yesterday: 50 °F

High & Low Weather Summary for the Past Weeks

 TemperatureHumidityPressure
High77 °F (Jan 31, 1:50 PM)100% (Jan 25, 9:50 PM)30.50 "Hg (Jan 25, 9:50 PM)
Low37 °F (Jan 23, 6:50 AM)17% (Feb 2, 3:50 PM)29.61 "Hg (Feb 2, 2:50 AM)
Average57 °F64%30.11 "Hg
* Reported Jan 21 11:50 PM — Feb 5 11:50 PM, Pasadena, Weather by CustomWeather, © 2016

Note: Actual official high and low records may vary slightly from our data, if they occured in-between our weather recording intervals... More about our weather records

Advertising

Pasadena Weather History for the Previous 24 Hours

 ConditionsComfort  
Time TempWeatherWind HumidityBarometerVisibility
11:50 PM
Fri, Feb 5
52 °FMostly cloudy.No wind67%30.38 "Hg10 mi
10:50 PM50 °FPassing clouds.3 mph62%30.38 "Hg10 mi
9:50 PM50 °FPassing clouds.3 mph54%30.38 "Hg10 mi
8:50 PM50 °FPassing clouds.6 mph54%30.38 "Hg10 mi
7:50 PM50 °FPassing clouds.6 mph54%30.38 "Hg10 mi
6:50 PM50 °FPassing clouds.6 mph54%30.38 "Hg10 mi
5:50 PM52 °FPassing clouds.12 mph41%30.38 "Hg10 mi
4:50 PM54 °FScattered clouds.14 mph38%30.36 "Hg10 mi
3:50 PM55 °FScattered clouds.10 mph38%30.36 "Hg10 mi
2:50 PM55 °FSunny.13 mph38%30.39 "Hg10 mi
1:50 PM55 °FSunny.10 mph38%30.41 "Hg10 mi
12:50 PM57 °FSunny.9 mph33%30.44 "Hg10 mi
11:50 AM57 °FSunny.7 mph31%30.48 "Hg10 mi
10:50 AM55 °FSunny.10 mph33%30.49 "Hg10 mi
9:50 AM52 °FSunny.8 mph47%30.50 "Hg10 mi
8:50 AM50 °FSunny.No wind50%30.50 "Hg10 mi
7:50 AM46 °FSunny.No wind57%30.48 "Hg10 mi
6:50 AM43 °FClear.No wind57%30.46 "Hg10 mi
5:50 AM43 °FClear.No wind61%30.46 "Hg10 mi
4:50 AM41 °FClear.No wind53%30.45 "Hg10 mi
3:50 AM43 °FClear.No wind49%30.46 "Hg10 mi
2:50 AM45 °FClear.No wind49%30.47 "Hg10 mi
1:50 AM48 °FClear.No wind37%30.48 "Hg10 mi
Weather by CustomWeather, © 2016

See weather overviewHow to use our weather pages